Location: T�bingen+AIT
(48.5342°N, 9.0700°E)
Time: 11:55:22
(UTC+01:00)

Daily predictions for brighter satellites

Satellite Brightness Start Highest point End
(mag) Time Altitude Azimuth Time Altitude Azimuth Time Altitude Azimuth
Lacrosse 5 1.9 18:16:40 10° NW 18:21:46 85° NE 18:26:50 10° SE
Shenzhou-11 Module 4.2 18:25:04 10° WSW 18:27:22 20° SSW 18:29:40 10° SE
Lacrosse 4 Rocket 3.6 18:24:06 10° NW 18:27:47 31° WSW 18:31:33 10° S
Cosmos 1869 Rocket 3.5 18:24:55 10° S 18:29:14 82° E 18:33:35 10° N
Cosmos 1782 4.3 18:25:47 10° NNW 18:29:36 42° W 18:33:22 10° SSW
ERS-2 3.0 18:26:22 10° SE 18:29:37 30° ENE 18:32:53 10° N
EO 1 Del DPAF 3.9 18:29:14 10° NNE 18:32:43 33° E 18:36:11 10° SSE
Envisat 4.1 18:28:55 10° ESE 18:32:49 23° ENE 18:36:45 10° N
Cosmos 1371 Rocket 4.0 18:28:43 10° NNW 18:34:00 87° ENE 18:39:17 10° SSE
Cosmos 2221 Rocket 3.8 18:30:48 10° NNW 18:35:13 78° W 18:39:38 10° S
Cosmos 1725 Rocket 4.2 18:28:54 10° N 18:35:15 84° W 18:41:33 10° S
Tiangong 2 2.6 18:34:12 10° WSW 18:37:00 28° S 18:39:48 10° ESE
CZ-4C R/B 4.0 18:32:23 10° NW 18:37:27 24° NNE 18:43:05 10° ENE
Cosmos 2084 Rocket 4.5 18:37:24 10° S 18:41:06 27° ESE 18:44:20 12° ENE
Cosmos 2219 Rocket 2.8 18:36:13 10° NNW 18:41:51 63° WSW 18:47:24 10° SSE
USA 186 3.9 18:42:10 11° ENE 18:42:10 11° ENE 18:43:10 10° NE
ALOS 2.6 18:38:14 10° S 18:42:54 72° WSW 18:47:35 10° NNW
CZ-4 R/B 3.5 18:42:44 10° SSW 18:46:24 31° W 18:50:01 10° NNW
Iridium 2 4.1 18:42:52 10° N 18:46:43 67° W 18:50:29 10° S
FREGAT/IRIS 3.1 18:44:45 10° SE 18:47:30 36° ENE 18:50:17 10° N
SeaSat 1 2.6 18:44:41 10° SE 18:49:27 51° NE 18:54:15 10° NNW
Cosmos 44 3.8 18:44:49 10° NNW 18:49:32 44° NE 18:54:18 11° ESE
USA 267 3.5 18:43:43 11° E 18:49:54 55° NNE 18:56:15 10° NW
Cosmos 1633 4.0 18:47:33 10° SE 18:49:54 17° E 18:51:37 13° NE
Cosmos 2219 3.2 18:45:00 10° SSW 18:50:37 90° ESE 18:56:19 10° NNE
Cosmos 2123 Rocket 4.2 18:45:33 10° SSW 18:51:43 77° W 18:57:56 10° N
Cosmos 1862 3.6 18:48:25 10° SSW 18:52:24 71° WNW 18:56:23 10° N
Cosmos 2237 Rocket 2.2 18:46:54 10° NNW 18:52:35 86° ENE 18:58:12 10° SSE
Landsat 4 3.6 18:49:03 10° NNE 18:52:47 68° ESE 18:56:30 10° S
SL-16 R/B 2.6 18:48:25 10° NNW 18:53:51 43° NE 18:59:13 10° SE
SJ-6B 3.4 18:51:12 10° SE 18:54:36 33° ENE 18:58:05 10° N
COSMO-SKYMED 1 2.9 18:50:42 10° N 18:55:03 72° WNW 18:59:22 10° SSW
Cosmos 2227 Rocket 2.5 18:50:12 10° S 18:55:30 43° ESE 19:00:49 10° NE
CENTAUR R/B 3.7 18:54:03 10° SSE 18:58:15 19° ESE 19:00:41 16° E
SPOT 3 Rocket 3.8 18:55:21 10° S 19:00:32 76° WSW 19:05:47 10° NNW
Okean 1 4.4 18:59:19 10° NNE 19:02:36 24° ENE 19:03:54 20° E
Cosmos 2056 Rocket 3.9 18:58:07 10° NNW 19:03:31 70° WSW 19:08:54 10° S
Cosmos 2297 Rocket 2.4 19:04:36 10° S 19:10:00 48° ESE 19:15:27 10° NE
Cosmos 1452 Rocket 3.5 19:04:48 10° NNW 19:10:02 60° ENE 19:15:14 10° SE
HJ-1C 3.4 19:09:15 10° SSE 19:12:37 58° ENE 19:16:00 10° N
NOSS 3-2 (A) 3.4 19:13:56 10° SSW 19:19:53 74° SE 19:26:35 10° NE
Cosmos 2333 Rocket 3.8 19:17:15 10° NW 19:22:23 36° WSW 19:27:30 10° S
Meteor 1-25 Rocket 4.3 19:17:22 10° SSE 19:22:39 48° E 19:27:59 10° NNE
ATLAS 3B R/B 2.9 19:15:41 10° SW 19:22:53 75° NW 19:29:49 10° NE
Spot 2 Rocket 4.2 19:21:10 25° ESE 19:23:05 32° ENE 19:27:34 10° N
Cosmos 1674 Rocket 3.5 19:20:37 10° N 19:25:01 87° WSW 19:29:21 10° S
H-2A R/B 3.8 19:23:11 10° S 19:26:59 49° W 19:30:49 10° NNW
Cosmos 1420 Rocket 3.9 19:28:39 10° NNW 19:33:57 76° ENE 19:38:45 13° SSE
Cosmos 1908 Rocket 3.7 19:29:55 10° S 19:34:15 52° E 19:38:37 10° NNE
USA 238 DEB 4.1 19:27:44 10° SW 19:34:35 65° NW 19:41:34 10° NE
USA 238 4.1 19:27:49 10° SW 19:34:41 65° NW 19:41:41 10° NE
Cosmos 2082 3.6 19:29:45 10° SSW 19:35:18 68° ESE 19:40:55 10° NNE
CZ-2D R/B 3.1 19:33:00 10° SSE 19:36:54 82° ENE 19:40:49 10° NNW
Resurs 1-3 3.8 19:36:14 37° ESE 19:37:25 46° ENE 19:41:38 10° N
DNEPR-1 R/B 3.3 19:35:35 10° SSW 19:39:45 75° SE 19:41:38 33° NE
Iridium 4 Rocket 3.2 19:35:18 10° N 19:40:31 80° E 19:45:14 10° S
Resurs 01 Rocket 1.7 19:39:45 39° ESE 19:40:55 50° ENE 19:45:13 10° N
Cosmos 1733 Rocket 3.7 19:39:57 10° SSW 19:44:12 55° WNW 19:48:28 10° N
Cosmos 1812 3.5 19:40:29 10° NNW 19:44:16 53° W 19:48:02 10° S
Cosmos 158 Rocket 3.9 19:40:22 10° S 19:45:05 50° ESE 19:46:47 34° NE
ATLAS CENTAUR R/B 3.4 19:42:54 10° N 19:45:00 15° NNE 19:45:00 15° NNE
Cosmos 44 Rocket 3.3 19:40:38 10° NW 19:45:40 84° NE 19:47:58 33° SE
Cosmos 1939 Rocket 3.1 19:46:53 50° ENE 19:46:53 50° ENE 19:50:50 10° N
Cosmos 405 3.6 19:43:32 10° SSW 19:46:58 57° WNW 19:50:27 10° N
Cosmos 1464 Rocket 3.9 19:41:33 10° N 19:47:43 85° W 19:53:50 10° S
Thor Agena Rocket 3.4 19:46:10 10° NNE 19:51:19 74° ESE 19:56:22 10° S
Cosmos 921 Rocket 3.0 19:48:08 10° NNW 19:52:39 64° ENE 19:53:18 56° ESE
SJ-11-01 4.4 19:52:53 49° E 19:53:09 50° ENE 19:57:45 10° N
YAOGAN 6 3.8 19:57:59 31° N 19:57:59 31° N 20:00:02 10° N
USA 215 3.2 19:53:51 29° ENE 19:57:27 75° SE 20:03:59 10° SW
Cosmos 1975 Rocket 2.9 19:53:17 10° N 19:57:41 64° ENE 19:57:47 64° E
Cosmos 468 4.4 19:57:59 10° S 20:03:13 67° ESE 20:05:23 35° NE
Lacrosse 5 4.0 20:00:19 10° WNW 20:04:15 23° SW 20:08:09 10° S
USA 32 3.9 19:59:56 10° S 20:05:10 87° E 20:10:27 10° N
NOSS 3-2 (C) 3.6 20:05:00 10° SW 20:11:04 77° NW 20:15:35 22° NE
Envisat 3.5 20:06:27 10° S 20:11:28 59° W 20:16:30 10° NNW
CRYOSAT 2 4.4 20:07:12 10° N 20:12:07 80° W 20:16:58 10° S
USA 186 3.5 20:13:43 29° NNW 20:13:43 29° NNW 20:15:36 10° NNW
Tiangong 2 3.7 20:11:03 10° WSW 20:12:21 16° SW 20:12:21 16° SW
ARGOS 4.4 20:17:04 28° NNE 20:17:04 28° NNE 20:20:11 10° N
Meteor 1-13 Rocket 4.0 20:10:25 10° N 20:15:59 68° ENE 20:16:18 66° E
Sich 1 Rocket 3.7 20:13:23 10° SSW 20:17:55 75° W 20:22:25 10° N
NOAA 11 4.2 20:20:21 62° NE 20:20:21 62° NE 20:25:24 10° N
Cosmos 2084 Rocket 4.2 20:16:16 10° WSW 20:20:27 47° NW 20:20:56 45° NNW
H-2A R/B 3.7 20:22:48 21° NNE 20:22:48 21° NNE 20:25:05 10° N
Cosmos 2034 Rocket 4.3 20:14:27 10° NNW 20:20:47 68° W 20:27:05 10° S
Cosmos 1110 Rocket 4.2 20:16:17 10° NNW 20:20:53 56° NNE 20:20:53 56° NNE
Cosmos 1943 3.8 20:17:44 10° NNW 20:22:16 40° NNE 20:22:16 40° NNE
Cosmos 1633 4.1 20:21:16 10° SW 20:24:33 35° WNW 20:26:23 21° NNW
SeaSat 1 4.3 20:22:59 10° SSW 20:27:11 28° WSW 20:31:24 10° NW
CZ-4C R/B 3.2 20:21:12 10° NW 20:27:42 46° NE 20:28:28 44° NE
ARGOS Delta rocket 4.5 20:24:33 10° N 20:29:31 56° WNW 20:34:09 10° SSW
USA 267 3.3 20:31:05 50° SSE 20:32:49 71° SW 20:39:23 10° WNW
Cosmos 1634 Rocket 3.9 20:31:13 10° N 20:36:57 69° NE 20:36:57 69° NE
SL-16 R/B 3.5 20:32:44 10° NW 20:37:54 36° WSW 20:41:42 17° SSW
Cosmos 2227 Rocket 3.5 20:34:25 10° WSW 20:39:39 37° NW 20:44:54 10° NNE
CENTAUR R/B 2.4 20:41:36 10° SW 20:47:47 88° SE 20:47:59 85° ENE
Cosmos 2346 Rocket 4.4 20:53:41 80° NW 20:53:41 80° NW 20:59:41 10° N
Cosmos 2297 Rocket 3.7 20:49:07 10° WSW 20:54:15 34° NW 20:59:09 11° NNE
Cosmos 1603 4.0 20:50:28 10° NNW 20:55:26 64° WNW 20:55:26 64° WNW
ATLAS 3B R/B 4.2 21:08:38 10° W 21:14:41 29° NNW 21:17:45 21° NNE
Resurs 01 Rocket 4.0 21:17:18 19° W 21:17:42 20° W 21:20:56 10° NW
ATLAS CENTAUR R/B 4.4 21:21:00 10° NW 21:21:15 12° NW 21:21:15 12° NW
USA 215 3.9 21:41:13 50° NW 21:41:13 50° NW 21:46:39 10° W
H-2A R/B 4.5 22:03:25 18° NNW 22:03:25 18° NNW 22:04:54 10° NNW
CZ-4C R/B 4.0 22:09:40 10° NW 22:13:40 37° WNW 22:13:40 37° WNW
